AirNav   Phillips 66 Aviation Fuel
 
 364 users online  

08CA PG&E Co. Placerville Service Center Heliport
Diamond Springs, California, USA

GOING TO DIAMOND SPRINGS?


FAA INFORMATION EFFECTIVE 12 OCTOBER 2017

Location

FAA Identifier: 08CA
Lat/Long: 38-41-42.8000N / 120-49-33.8000W
38-41.713333N / 120-49.563333W
38.6952222 / -120.8260556
(estimated)
Elevation: 1810 ft. / 552 m (estimated)
Variation: 16E (1985)
From city: 1 mile W of DIAMOND SPRINGS, CA
Time zone: UTC -7 (UTC -8 during Standard Time)
Zip code: 95619

Heliport Operations

Heliport use: Private use. Permission required prior to landing
Activation date: 05/1980
Control tower: no
ARTCC: OAKLAND CENTER
FSS: OAKLAND FLIGHT SERVICE STATION
Attendance: UNATNDD
Wind indicator: yes
Segmented circle: no

Heliport Communications

WX AWOS-3 at PVF (4 nm NE): 128.125 (530-622-5698)
WX AWOS-3 at JAQ (19 nm S): 121.125 (209-257-1292)
WX AWOS-3 at AUN (20 nm NW): 119.375 (530-888-8934)

Nearby radio navigation aids

VOR radial/distance  VOR name  Freq  Var
HNWr227/4.0HANGTOWN VOR/DME115.5017E
MCCr069/27.1MC CLELLAN VOR/DME109.2017E
SACr049/37.2SACRAMENTO VORTAC115.2017E
LINr356/38.2LINDEN VOR/DME114.8017E
SWRr206/39.0SQUAW VALLEY VOR/DME113.2016E

Heliport Services

Runway Information

Helipad H1

Dimensions: 60 x 60 ft. / 18 x 18 m
Surface: asphalt
Latitude: 38-41.713333N
Longitude: 120-49.563333W
Elevation: 1810.0 ft.
Traffic pattern: leftleft

Heliport Ownership and Management from official FAA records

Ownership: Privately-owned
Owner: PACIFIC GAS & ELEC CO.
343 SACRAMENTO STREET
AUBURN, CA 95603
Phone 916-889-3195
Manager: GINO RINALDI
4636 MISSOURI FLAT ROAD
PLACERVILLE, CA 95667
Phone (530) 621-7269
CELL: 530-919-8262

Heliport Operational Statistics

Aircraft based on the field: 1
Helicopters: 1
    

Instrument Procedures

There are no published instrument procedures at 08CA.

Some nearby airports with instrument procedures:

KPVF - Placerville Airport (4 nm NE)
KJAQ - Westover Field / Amador County Airport (19 nm S)
KAUN - Auburn Municipal Airport (20 nm NW)
KMHR - Sacramento Mather Airport (24 nm W)
KMCC - Mc Clellan Airfield (27 nm W)
 
Loc | Ops | Rwys | IFR | FBO | Links
Com | Nav | Svcs | Stats | Notes


 
Area around 08CA (PG&E Co. Placerville Service Center Heliport)
 
Road maps at: MapQuest Bing Google
 
Aerial photo
No photo
 
Sectional chart

 
Airport distance calculator
Flying to PG&E Co. Placerville Service Center Heliport? Find the distance to fly.

From to 08CA

Sunrise and sunset
Times for 21-Oct-2017
 Local
(UTC-7)
 Zulu
(UTC)
Morning civil twilight06:5313:53
Sunrise07:2014:20
Sunset18:1601:16
Evening civil twilight18:4301:43

Current date and time
Zulu (UTC)  21-Oct-2017 10:16:58
Local (UTC-7)  21-Oct-2017 03:16:58
 
METAR
KPVF 
4nm NE 
210955Z AUTO 07010KT 10SM CLR 06/00 A3016 RMK AO1
KJAQ 
19nm S 
210955Z AUTO 00000KT 10SM CLR 10/02 A3015 RMK AO1 T00950020
KAUN 
20nm NW 
210955Z AUTO 09005KT 10SM CLR 08/03 A3016 RMK AO1
TAF
KMHR 
24nm SW 
210540Z 2106/2206 VRB04KT P6SM BKN250 TEMPO 2113/2117 5SM BR FM211800 32006KT P6SM BKN100 AMD NOT SKED
NOTAMs
Click for the latest NOTAMs
NOTAMs are issued by the DoD/FAA and will open in a separate window not controlled by AirNav.

 

 
 

Would you like to see your business listed on this page?

 If your business provides an interesting product or service to pilots, flight crews, aircraft, or users of the PG&E Co. Placerville Service Center Heliport, you should consider listing it here.  To start the listing process, click on the button below
 
Add a business
 

Other Pages about PG&E Co. Placerville Service Center Heliport

Update a link
 
Copyright © AirNav, LLC. All rights reserved. Privacy Policy  Contact